Date String (YYYY-MM-DD hh:mm:ss) UTC,Instrument flags,Ambient pressure (hPa),Sample flow (lpm),Bypass flow (lpm),Sample temperature (°C),Ambient temperature (°C),ASC tube jacket temperature (°C),LED temperature (°C),Box temperature (°C),Sample RH (%),Span deviation,Mass concentration (μg/m³),Mass concentration (μg/m³),Mass concentration (μg/m³)
DateTimeUTC,F1_M11,P_M11,Q1_M11,Q2_M11,T1_M11,T2_M11,T3_M11,T4_M11,T5_M11,U1_M11,ZSPAN_M11,X0_M11,X2_M11,X1_M11
2021-09-01 00:00:00,,0821.6,5.00,0.00,28.8,26.7,00.0,37.9,30.6,16.3,0000.9,0050.31,0030.20,0028.32
2021-09-01 00:01:00,,0821.6,5.00,0.00,28.9,27.2,00.0,37.9,30.7,16.6,0000.8,0049.94,0030.20,0028.32
2021-09-01 00:02:00,,0821.6,5.00,0.00,28.9,27.6,00.0,37.9,30.9,15.7,0001.0,0049.89,0030.22,0028.35
2021-09-01 00:03:00,,0821.5,4.98,0.00,29.0,27.9,00.0,37.9,31.0,15.9,0001.2,0050.81,0030.30,0028.39
2021-09-01 00:04:00,,0821.5,5.01,0.00,29.1,28.2,00.0,38.0,31.0,15.3,0001.0,0050.48,0030.35,0028.42
2021-09-01 00:05:00,,0821.5,4.99,0.00,29.1,28.2,00.0,38.0,31.1,15.1,0000.7,0049.03,0030.39,0028.50
2021-09-01 00:06:00,,0821.5,5.00,0.00,29.1,26.6,00.0,38.0,30.7,15.3,0000.4,0049.62,0030.60,0028.67
2021-09-01 00:07:00,,0821.5,5.01,0.00,28.9,25.6,00.0,38.0,30.3,15.4,0000.4,0050.18,0030.81,0028.87
2021-09-01 00:08:00,,0821.5,5.00,0.00,28.9,26.0,00.0,38.0,30.4,15.6,0000.5,0050.88,0031.03,0029.07
2021-09-01 00:09:00,,0821.5,5.00,0.00,28.9,26.4,00.0,38.0,30.5,15.9,0000.3,0050.59,0031.04,0029.15
2021-09-01 00:10:00,,0821.5,5.00,0.00,28.9,26.8,00.0,37.9,30.6,16.1,0000.4,0051.44,0031.18,0029.23
2021-09-01 00:11:00,,0821.5,5.00,0.00,28.9,27.3,00.0,38.0,30.7,15.6,0000.5,0052.11,0031.34,0029.35
2021-09-01 00:12:00,,0821.5,5.01,0.00,29.0,27.7,00.0,38.0,30.9,15.5,0000.6,0052.97,0031.59,0029.56
2021-09-01 00:13:00,,0821.5,4.99,0.00,29.1,28.0,00.0,38.0,31.0,15.1,0000.4,0052.47,0031.86,0029.79
2021-09-01 00:14:00,,0821.5,5.00,0.00,29.1,28.3,00.0,38.0,31.1,14.7,0000.2,0051.49,0032.08,0030.03
2021-09-01 00:15:00,,0821.5,5.00,0.00,29.2,27.7,00.0,38.0,31.0,14.8,0000.3,0051.99,0032.35,0030.34
2021-09-01 00:16:00,,0821.5,5.00,0.00,29.0,26.0,00.0,38.0,30.5,15.0,0000.3,0052.51,0032.66,0030.59
2021-09-01 00:17:00,,0821.5,5.00,0.00,28.9,25.7,00.0,38.0,30.4,15.1,0000.3,0051.89,0032.89,0030.77
2021-09-01 00:18:00,,0821.6,5.00,0.00,28.9,26.1,00.0,38.0,30.5,15.3,0000.3,0050.97,0033.12,0030.95
2021-09-01 00:19:00,,0821.5,5.01,0.00,28.9,26.6,00.0,38.0,30.6,15.7,0000.0,0050.16,0033.25,0031.05
2021-09-01 00:20:00,,0821.6,5.00,0.00,28.9,27.0,00.0,38.0,30.7,15.2,0000.1,0052.53,0033.47,0031.19
2021-09-01 00:21:00,,0821.5,5.01,0.00,29.0,27.5,00.0,38.0,30.8,15.0,0000.0,0051.92,0033.71,0031.40
2021-09-01 00:22:00,,0821.6,4.99,0.00,29.0,27.8,00.0,38.0,30.9,13.9,-000.1,0052.50,0034.03,0031.62
2021-09-01 00:23:00,,0821.6,5.01,0.00,29.1,28.0,00.0,38.0,31.0,14.1,-000.1,0052.77,0034.21,0031.81
2021-09-01 00:24:00,,0821.5,4.99,0.00,29.1,26.7,00.0,38.0,30.7,14.3,0000.2,0053.76,0034.36,0031.97
2021-09-01 00:25:00,,0821.5,5.00,0.00,28.9,25.4,00.0,38.0,30.3,15.2,0000.1,0053.46,0034.43,0032.02
2021-09-01 00:26:00,,0821.6,5.00,0.00,28.8,25.7,00.0,38.0,30.3,15.0,0000.0,0053.53,0034.46,0032.03
2021-09-01 00:27:00,,0821.5,5.01,0.00,28.8,26.2,00.0,37.9,30.4,15.3,0000.3,0054.19,0034.48,0032.03
2021-09-01 00:28:00,,0821.6,5.01,0.00,28.8,26.7,00.0,37.9,30.5,14.9,0000.4,0054.73,0034.57,0032.08
2021-09-01 00:29:00,,0821.6,5.00,0.00,28.9,27.1,00.0,37.9,30.7,15.3,0000.4,0055.65,0034.65,0032.15
2021-09-01 00:30:00,,0821.5,5.00,0.00,28.9,27.5,00.0,37.9,30.8,15.4,0000.4,0056.60,0034.78,0032.20
2021-09-01 00:31:00,,0821.5,5.00,0.00,29.0,27.8,00.0,37.9,30.9,15.2,0000.5,0056.15,0034.90,0032.30
2021-09-01 00:32:00,,0821.6,5.00,0.00,29.1,28.1,00.0,38.0,31.0,14.9,0000.5,0056.62,0034.90,0032.31
2021-09-01 00:33:00,,0821.5,5.00,0.00,29.1,27.8,00.0,38.0,31.0,15.0,0000.6,0056.56,0034.81,0032.27
2021-09-01 00:34:00,,0821.5,4.99,0.00,29.0,26.1,00.0,38.0,30.5,14.9,0000.5,0056.50,0034.77,0032.23
2021-09-01 00:35:00,,0821.6,5.01,0.00,28.9,25.6,00.0,38.0,30.3,15.0,0000.3,0056.21,0034.78,0032.23
2021-09-01 00:36:00,,0821.6,5.01,0.00,28.8,26.0,00.0,37.9,30.4,14.6,0000.3,0055.65,0034.75,0032.26
2021-09-01 00:37:00,,0821.5,5.00,0.00,28.8,26.4,00.0,37.9,30.5,15.4,0000.5,0054.85,0034.78,0032.31
2021-09-01 00:38:00,,0821.5,5.00,0.00,28.8,26.9,00.0,37.9,30.6,15.1,0000.5,0055.21,0034.89,0032.38
2021-09-01 00:39:00,,0821.6,5.00,0.00,28.9,27.3,00.0,37.9,30.8,15.2,0000.6,0056.51,0034.84,0032.40
2021-09-01 00:40:00,,0821.6,4.98,0.00,28.9,27.6,00.0,37.9,30.9,15.2,0000.7,0055.84,0034.83,0032.42
2021-09-01 00:41:00,,0821.6,5.01,0.00,29.0,28.0,00.0,37.9,31.0,15.1,0000.9,0055.95,0034.90,0032.50
2021-09-01 00:42:00,,0821.7,4.99,0.00,29.1,28.2,00.0,38.0,31.1,15.2,0000.8,0055.71,0034.95,0032.55
2021-09-01 00:43:00,,0821.7,4.99,0.00,29.2,28.4,00.0,38.0,31.2,14.9,0000.8,0057.29,0035.15,0032.63
2021-09-01 00:44:00,,0821.6,5.01,0.00,29.2,27.4,00.0,38.0,30.9,15.2,0000.6,0056.81,0035.20,0032.65
2021-09-01 00:45:00,,0821.6,4.99,0.00,29.0,25.8,00.0,38.0,30.5,15.1,0000.7,0056.84,0035.20,0032.66
2021-09-01 00:46:00,,0821.6,5.01,0.00,28.9,25.8,00.0,38.0,30.4,15.3,0000.9,0057.27,0035.16,0032.65
2021-09-01 00:47:00,,0821.6,4.99,0.00,28.9,26.2,00.0,38.0,30.5,14.9,0001.1,0057.72,0035.19,0032.65
2021-09-01 00:48:00,,0821.7,4.99,0.00,28.9,26.7,00.0,38.0,30.6,14.8,0001.0,0059.30,0035.28,0032.70
2021-09-01 00:49:00,,0821.7,5.01,0.00,28.9,27.1,00.0,38.0,30.8,14.8,0001.0,0058.54,0035.29,0032.75
2021-09-01 00:50:00,,0821.6,5.00,0.00,29.0,27.5,00.0,38.0,30.9,14.8,0000.9,0058.00,0035.39,0032.81
2021-09-01 00:51:00,,0821.7,4.99,0.00,29.0,27.9,00.0,38.0,31.0,14.4,0000.9,0059.47,0035.42,0032.85
2021-09-01 00:52:00,,0821.7,5.00,0.00,29.1,28.1,00.0,38.0,31.1,14.5,0000.9,0059.68,0035.43,0032.93
2021-09-01 00:53:00,,0821.7,5.00,0.00,29.2,28.4,00.0,38.1,31.2,14.3,0000.9,0059.88,0035.50,0033.03
2021-09-01 00:54:00,,0821.7,5.00,0.00,29.2,28.4,00.0,38.1,31.2,14.2,0001.0,0057.62,0035.48,0033.12
2021-09-01 00:55:00,,0821.7,4.99,0.00,29.2,26.9,00.0,38.1,30.8,14.3,0001.1,0058.12,0035.66,0033.29
2021-09-01 00:56:00,,0821.7,5.01,0.00,29.0,25.7,00.0,38.1,30.5,14.4,0001.2,0058.79,0035.80,0033.42
2021-09-01 00:57:00,,0821.7,5.01,0.00,29.0,26.0,00.0,38.1,30.5,14.4,0001.0,0059.37,0035.93,0033.53
2021-09-01 00:58:00,,0821.7,4.99,0.00,29.0,26.4,00.0,38.0,30.6,14.4,0000.9,0059.18,0036.01,0033.61
2021-09-01 00:59:00,,0821.7,5.00,0.00,29.0,26.9,00.0,38.0,30.7,14.5,0000.8,0059.19,0036.05,0033.68
